KC8TAI Weather Reports


Display with metric or nautical units.
time (UTC)temp
F
wind
direction
speed
MPH
gust
MPH
rain 1hr
in
rain 24hr
in
rain mn
in
humidity
%
barometer
mb
20260507220516 58 230 5.0 9.0 0.00 0.00 0.00 50 1010.9
20260507215516 59 233 5.0 9.0 0.00 0.00 0.00 49 1010.9
20260507214516 60 230 7.0 9.0 0.00 0.00 0.00 49 1010.4
20260507213516 59 246 5.0 9.0 0.00 0.00 0.00 49 1010.6
20260507212516 59 226 7.0 11.0 0.00 0.00 0.00 48 1010.3
20260507211516 58 235 5.0 10.0 0.00 0.00 0.00 50 1010.6
20260507210516 59 230 6.0 10.0 0.00 0.00 0.00 50 1010.4
20260507205517 58 241 6.0 10.0 0.00 0.00 0.00 50 1010.5
20260507204517 60 238 7.0 12.0 0.00 0.00 0.00 49 1010.4
20260507203517 61 205 3.0 6.0 0.00 0.00 0.00 50 1010.3
20260507202517 60 239 6.0 10.0 0.00 0.00 0.00 49 1010.6
20260507201518 61 222 8.0 11.0 0.00 0.00 0.00 49 1010.3
20260507200518 60 243 4.0 7.0 0.00 0.00 0.00 50 1010.4
20260507195517 59 234 3.0 8.0 0.00 0.00 0.00 52 1010.6
20260507194515 58 229 6.0 11.0 0.00 0.00 0.00 51 1011.2
20260507193535 59 231 6.0 10.0 0.00 0.00 0.00 51 1010.8
20260507192515 60 143 3.0 6.0 0.00 0.00 0.00 50 1011.2
20260507191515 60 232 5.0 9.0 0.00 0.00 0.00 51 1010.7
20260507190516 60 232 7.0 12.0 0.00 0.00 0.00 52 1011.0
20260507185536 59 229 7.0 12.0 0.00 0.00 0.00 51 1010.7
20260507184516 59 231 4.0 7.0 0.00 0.00 0.00 51 1010.9
20260507183516 59 210 2.0 6.0 0.00 0.00 0.00 52 1011.4
20260507182517 60 220 5.0 10.0 0.00 0.00 0.00 51 1011.0
20260507181517 60 226 5.0 11.0 0.00 0.00 0.00 53 1010.9
20260507180517 58 232 5.0 8.0 0.00 0.00 0.00 51 1010.8
20260507175516 57 221 2.0 5.0 0.00 0.00 0.00 54 1011.6
20260507174516 58 229 6.0 12.0 0.00 0.00 0.00 53 1011.4
20260507173515 58 224 4.0 9.0 0.00 0.00 0.00 53 1011.3
20260507172516 58 264 5.0 10.0 0.00 0.00 0.00 53 1011.5
20260507171516 57 221 5.0 9.0 0.00 0.00 0.00 53 1011.5
20260507170516 57 228 5.0 8.0 0.00 0.00 0.00 54 1011.9
20260507165516 56 221 2.0 5.0 0.00 0.00 0.00 53 1012.0
20260507164515 56 230 3.0 6.0 0.00 0.00 0.00 53 1011.9
20260507163515 57 224 4.0 11.0 0.00 0.00 0.00 54 1012.1
20260507162515 57 214 6.0 10.0 0.00 0.00 0.00 55 1012.1
20260507161516 57 229 6.0 12.0 0.00 0.00 0.00 55 1012.1
20260507160516 56 234 1.0 4.0 0.00 0.00 0.00 52 1012.1
20260507155516 56 235 5.0 11.0 0.00 0.00 0.00 55 1012.2
20260507154516 56 222 5.0 9.0 0.00 0.00 0.00 56 1012.5
20260507153516 56 204 3.0 9.0 0.00 0.00 0.00 55 1012.1
20260507152536 55 192 3.0 7.0 0.00 0.00 0.00 54 1012.3
20260507151516 55 210 5.0 10.0 0.00 0.00 0.00 55 1012.4
20260507150517 54 240 3.0 8.0 0.00 0.00 0.00 54 1012.4
20260507145517 54 215 5.0 10.0 0.00 0.00 0.00 56 1012.7
20260507144518 54 245 4.0 7.0 0.00 0.00 0.00 56 1012.7
20260507143517 53 247 3.0 7.0 0.00 0.00 0.00 56 1013.0
20260507142518 54 217 2.0 4.0 0.00 0.00 0.00 56 1013.0
20260507141517 52 94 2.0 5.0 0.00 0.00 0.00 58 1013.0
20260507140518 51 231 2.0 4.0 0.00 0.00 0.00 63 1013.9
20260507135518 53 219 4.0 6.0 0.00 0.00 0.00 62 1013.8
20260507134515 52 228 3.0 7.0 0.00 0.00 0.00 63 1013.5
20260507133518 52 235 5.0 7.0 0.00 0.00 0.00 62 1013.7
20260507132516 52 224 3.0 6.0 0.00 0.00 0.00 60 1013.7
20260507131515 51 243 3.0 7.0 0.00 0.00 0.00 60 1013.7
20260507130516 51 227 1.0 5.0 0.00 0.00 0.00 66 1013.5
20260507125536 50 201 2.0 5.0 0.00 0.00 0.00 70 1013.6
20260507124516 51 248 1.0 3.0 0.00 0.01 0.00 71 1013.7
20260507123516 50 123 0.0 1.0 0.00 0.02 0.00 71 1013.8
20260507122516 49 263 1.0 4.0 0.00 0.03 0.00 75 1013.8
20260507121517 47 219 0.0 1.0 0.00 0.04 0.00 83 1013.9
20260507120516 46 251 0.0 3.0 0.00 0.05 0.00 88 1013.9
20260507115517 45 0.0 0.0 0.00 0.05 0.00 92 1013.9
20260507114517 45 234 0.0 2.0 0.00 0.05 0.00 95 1013.9
20260507113517 43 0.0 0.0 0.00 0.05 0.00 95 1013.9
20260507112522 43 0.0 0.0 0.00 0.05 0.00 96 1014.0
20260507111522 42 0.0 0.0 0.00 0.05 0.00 96 1013.9
20260507110522 42 0.0 0.0 0.00 0.05 0.00 96 1013.9
20260507105522 42 0.0 0.0 0.00 0.05 0.00 96 1013.8
20260507104523 43 0.0 0.0 0.00 0.05 0.00 95 1013.8
20260507103523 43 0.0 0.0 0.00 0.06 0.00 95 1013.7
20260507102523 43 0.0 0.0 0.00 0.07 0.00 95 1013.5
20260507101523 43 0.0 0.0 0.00 0.11 0.00 95 1013.5
20260507100523 43 291 0.0 0.0 0.00 0.15 0.00 95 1013.3
20260507095523 43 0.0 0.0 0.00 0.17 0.00 95 1013.3
20260507094524 43 0.0 0.0 0.00 0.20 0.00 95 1013.3
20260507093524 43 0.0 0.0 0.00 0.24 0.00 94 1013.3
20260507092524 43 0.0 0.0 0.00 0.26 0.00 93 1013.3
20260507091524 44 0.0 0.0 0.00 0.27 0.00 93 1013.5
20260507090524 44 0.0 0.0 0.00 0.27 0.00 93 1013.3
20260507085525 45 0.0 0.0 0.00 0.29 0.00 92 1013.3
20260507084524 45 0.0 0.0 0.00 0.30 0.00 92 1013.3
20260507083525 45 0.0 0.0 0.00 0.32 0.00 92 1013.3
20260507082545 45 43 0.0 0.0 0.00 0.33 0.00 93 1013.2
20260507081545 45 0.0 0.0 0.00 0.33 0.00 95 1013.3
20260507080525 46 0.0 0.0 0.00 0.33 0.00 96 1013.2
20260507075526 46 354 0.0 2.0 0.00 0.33 0.00 96 1013.2
20260507074526 46 60 0.0 1.0 0.00 0.33 0.00 96 1013.0
20260507073526 46 0.0 0.0 0.00 0.33 0.00 96 1013.1
20260507072526 46 237 0.0 2.0 0.00 0.33 0.00 96 1013.1
20260507071546 46 0.0 0.0 0.00 0.33 0.00 95 1013.1
20260507070526 47 64 0.0 1.0 0.00 0.33 0.00 95 1013.0
20260507065526 47 0.0 0.0 0.00 0.33 0.00 95 1013.1
20260507064527 47 0.0 0.0 0.00 0.33 0.00 95 1013.0
20260507063527 47 0.0 0.0 0.00 0.33 0.00 95 1013.0
20260507062527 47 0.0 0.0 0.00 0.33 0.00 95 1013.0
20260507061527 47 0.0 0.0 0.00 0.33 0.00 95 1013.0
20260507060527 47 0.0 0.0 0.00 0.33 0.00 94 1013.2
20260507055527 47 0.0 0.0 0.00 0.33 0.00 94 1013.3
20260507054548 47 0.0 0.0 0.00 0.33 0.00 94 1013.4
20260507053528 47 46 0.0 2.0 0.00 0.33 0.00 95 1013.5
20260507052528 48 41 1.0 2.0 0.00 0.33 0.00 96 1013.6
20260507051528 49 46 0.0 1.0 0.00 0.33 0.00 97 1013.6
20260507050518 49 0.0 0.0 0.00 0.33 0.00 97 1013.5
20260507045636 49 292 0.0 1.0 0.00 0.33 0.00 97 1013.5
20260507044536 49 239 1.0 2.0 0.00 0.33 0.00 97 1013.5
20260507043515 49 0.0 0.0 0.00 0.33 0.00 97 1013.4
20260507042516 49 0.0 0.0 0.00 0.33 0.00 97 1013.4
20260507041516 49 0.0 0.0 0.00 0.33 0.00 97 1013.4
20260507040556 49 0.0 0.0 0.00 0.33 0.00 96 1013.4
20260507035516 49 0.0 0.0 0.00 0.33 0.33 96 1013.3
20260507034516 49 0.0 0.0 0.00 0.33 0.33 96 1013.4
20260507033516 49 52 0.0 1.0 0.00 0.33 0.33 96 1013.3
20260507032517 49 0.0 0.0 0.00 0.33 0.33 96 1013.7
20260507031517 49 0.0 0.0 0.00 0.33 0.33 96 1013.8
20260507030537 49 237 0.0 2.0 0.00 0.33 0.33 95 1013.6
20260507025517 49 0.0 0.0 0.00 0.33 0.33 95 1013.3
20260507024517 49 0.0 0.0 0.00 0.33 0.33 95 1013.3
20260507023517 49 212 0.0 2.0 0.00 0.33 0.33 95 1013.3
20260507022517 49 0.0 0.0 0.00 0.33 0.33 95 1013.2
20260507021518 49 0.0 0.0 0.00 0.33 0.33 94 1013.1
20260507020518 49 0.0 0.0 0.00 0.33 0.33 94 1013.1
20260507015518 49 0.0 0.0 0.00 0.33 0.33 94 1013.0
20260507014515 49 0.0 0.0 0.00 0.33 0.33 94 1012.9
20260507013515 49 0.0 0.0 0.00 0.33 0.33 94 1012.9
20260507012515 49 229 0.0 2.0 0.00 0.33 0.33 94 1013.2
20260507011516 49 0.0 0.0 0.00 0.33 0.33 94 1012.7
20260507010516 49 43 0.0 1.0 0.00 0.33 0.33 94 1012.4
20260507005516 49 0.0 0.0 0.00 0.33 0.33 94 1012.7
20260507004516 50 0.0 0.0 0.00 0.33 0.33 93 1012.9
20260507003516 50 58 0.0 2.0 0.00 0.33 0.33 93 1012.8
20260507002517 50 0.0 0.0 0.00 0.33 0.33 92 1012.7
20260507001517 50 195 0.0 2.0 0.00 0.33 0.33 90 1012.8
20260507000517 51 251 1.0 5.0 0.00 0.33 0.33 89 1013.3
20260506235518 51 283 0.0 2.0 0.00 0.33 0.33 90 1012.9
20260506234557 51 16 0.0 0.0 0.00 0.33 0.33 90 1012.7
20260506233517 51 277 0.0 2.0 0.00 0.33 0.33 89 1012.6
20260506232518 51 224 0.0 2.0 0.00 0.33 0.33 90 1012.6
20260506231518 51 281 1.0 4.0 0.00 0.33 0.33 89 1012.5
20260506230518 52 203 1.0 6.0 0.00 0.33 0.33 91 1012.6
20260506225515 52 247 0.0 2.0 0.00 0.33 0.33 91 1012.4
20260506224515 52 255 1.0 3.0 0.00 0.33 0.33 91 1012.2
20260506223535 52 245 0.0 4.0 0.00 0.33 0.33 91 1012.1
20260506222516 52 267 1.0 3.0 0.00 0.33 0.33 91 1012.1
20260506221516 52 277 1.0 4.0 0.00 0.33 0.33 91 1012.1